Regional Weather Roundup
Issued by NWS Newport/Morehead, NC

Current Version | Previous Version | Graphics & Text | Print | Product List | Glossary On
Versions: 1 2 3 4 5 6 7 8 9 10 11 12 13 14 15 16 17 18 19 20 21 22 23 24 25 26 27 28 29 30 31 32 33 34 35 36 37 38 39 40 41 42 43 44 45 46 47 48 49 50
000 ASUS42 KMHX 251922 RWRMHX WEATHER ROUNDUP FOR EASTERN NORTH CAROLINA NATIONAL WEATHER SERVICE NEWPORT/MOREHEAD CITY NC 200 PM EST TUE NOV 25 2014 NOTE: "FAIR" INDICATES FEW OR NO CLOUDS BELOW 12,000 FEET WITH NO SIGNIFICANT WEATHER AND/OR OBSTRUCTIONS TO VISIBILITY NCZ015>017-031-032-045>047-102-103-252000- NORTH COAST CITY SKY/WX TMP DP RH WIND PRES REMARKS EDENTON CLOUDY 62 60 93 NW7 30.01S ELIZABETH CITY LGT RAIN 64 59 82 W7 30.02R KITTY HAWK CLOUDY 61 60 96 W3 30.00S MANTEO CLOUDY 63 60 93 CALM 30.02R $$ NCZ045>047-081-094-103-104-252000- CENTRAL COAST CITY SKY/WX TMP DP RH WIND PRES REMARKS FRISCO CLOUDY 62 61 96 CALM 30.02S SWANQUARTER N/A 63 N/A N/A NW6 30.00R $$ NCZ095-097-098-100-101-252000- SOUTHERN COAST CITY SKY/WX TMP DP RH WIND PRES REMARKS BEAUFORT CLOUDY 66 62 87 NW5 30.03R CEDAR ISLAND N/A 61 N/A N/A NW2 30.06S JACKSONVILLE CLOUDY 66 62 87 W8 30.01F PINEY ISLAND CLOUDY 68 61 78 W7 30.04R WILMINGTON CLOUDY 67 63 87 W8 30.01F $$ NCZ011>013-027>030-043-044-078>080-089-090>093-098-252000- COASTAL PLAIN CITY SKY/WX TMP DP RH WIND PRES REMARKS AHOSKIE LGT RAIN 57 55 92 CALM 30.01F CLINTON LGT RAIN 62 62 100 CALM 30.01F ELIZABETHTOWN DRIZZLE 64 63 97 CALM 29.98F GOLDSBORO LGT RAIN 63 63 100 CALM 29.99F GREENVILLE LGT RAIN 63 61 94 CALM 30.04R HAVELOCK CLOUDY 67 62 84 NW10 30.04R KENANSVILLE LGT RAIN 63 61 95 CALM 30.01F KINSTON LGT RAIN 63 63 100 CALM 30.02F NEW BERN PTSUNNY 67 62 84 CALM 30.02F RICHLANDS CLOUDY 64 61 88 W3 30.02S ROCKY MOUNT LGT RAIN 57 52 83 N8 30.02F WASHINGTON CLOUDY 63 60 90 W3 30.03R WHITEVILLE DRIZZLE 64 61 88 CALM 29.97F $$ AMZ130-135-150-152-154-156-158-170-250-252-270-ANZ085-086-088-633-658-670-252000- MARINE OBSERVATIONS STATION/POSITION TIME TEMP WIND PRES WAVE SWELL AIR SEA DIR/SP/G HT/PER HT/PER (UTC) (F) (DEG/KT/KT) (MB) (FT/S) (FT/S) CHESAPEAKE LIGHT 1900 56 350/ 18/ 19 1016.3 64 E VA BEACH 1900 63 64 250/ 10/ 10 1015.8 5/ 8 5/ 8 DUCK 1900 59 59 270/ 8/ 9 1015.4 2 E DUCK 1900 58 N/A 3/ 9 2/11 10 NE DUCK 1900 59 N/A 4/ 8 2/11 OREGON INLET 1900 63 58 CALM / 2 1016.2 13E OREGON INLT 1900 62 N/A 4/ 8 2/11 HATTERAS CG 1900 62 63 40/ 2/ 4 1017.0 DIAMOND BUOY 1900 69 320/ 10/ 14 1016.3 5/ 8 5/ 8 17 S OCRACOKE NOT AVBL CAPE LOOKOUT 1900 65 300/ 6/ 7 1016.8 BEAUFORT LAB 1900 65 58 350/ 4/ 5 1015.9 30 SE NEW RIVER 1900 65 69 310/ 8/ 10 1017.4 4/ 8 3/ 8 5 SE WRIGHTSVLE 1900 60 59 260/ 2/ 4 1015.9 225 S CAPE HAT 1805 75 74 190/ 17/ 21 1017.8 6/ 8 3/ 8 41 SE CHARLESTON 1900 68 74 310/ 8/ 10 1015.5 5/ 8 5/ 8 $$

USA.gov is the U.S. government's official web portal to all federal, state and local government web resources and services.